Regional Weather Roundup
Issued by NWS

Home | Current Version | Previous Version | Text Only | Print | Product List | Glossary Off
Versions: 1 2 3 4 5 6 7 8 9 10 11 12 13 14 15 16 17 18 19 20 21 22 23 24 25 26 27 28

000
ASUS45 KSLC 251210
RWRUT

UTAH REGIONAL WEATHER ROUNDUP
NATIONAL WEATHER SERVICE SALT LAKE CITY UT
600 AM MDT SUN JUN 25 2017

UTZ001>011-023>025-251300-

NORTHERN UTAH

CITY           SKY/WX    TMP DP  RH WIND       PRES   REMARKS
BRIGHAM CITY   CLEAR     59  41  51 NW5       30.19S
HILL AFB       CLEAR     60  37  42 E20G28    30.21R
LOGAN          CLEAR     52  45  77 NE5       30.24R
OGDEN          CLEAR     61  39  44 SW6       30.18R
SALT LAKE CITY CLEAR     64  42  44 S5        30.17R
TOOELE VALLEY  CLEAR     55  32  41 SW9       30.18S
WENDOVER         N/A     68  33  27 CALM      30.18R
HEBER CITY     CLEAR     41  36  81 CALM      30.30R
WEST JORDAN    CLEAR     59  44  56 CALM      30.20S

$$

UTZ011>015-024>027-251300-

CENTRAL/NORTHEAST UTAH

CITY           SKY/WX    TMP DP  RH WIND       PRES   REMARKS
PROVO AIRPORT  CLEAR     55  40  56 SE9       30.21R
MOAB/CANYONLAN CLEAR     66  21  18 CALM      30.12R
DELTA          PTCLDY    52  32  46 N7        30.18S
PRICE          PTCLDY    62  26  25 W3        30.24R
VERNAL         CLEAR     57  37  47 NW3       30.24R

$$

UTZ013>016-019>022-027-251300-

SOUTHERN UTAH

CITY           SKY/WX    TMP DP  RH WIND       PRES   REMARKS
BRYCE CANYON   PTCLDY    42  23  46 W10       30.38R
CEDAR CITY     PTCLDY    57  22  25 CALM      30.22R
MILFORD        CLEAR     53  22  29 CALM      30.19R
ST GEORGE      SUNNY     80  24  12 SE6       29.98R
HANKSVILLE     CLEAR     55  19  24 CALM      30.16R
BLANDING       PTCLDY    66  22  18 N9        30.28R

$$

REGIONAL REPORTS     COLORADO/ARIZONA

CITY           SKY/WX    TMP DP  RH WIND       PRES   REMARKS
CRAIG, CO      CLOUDY    39  33  79 CALM      30.34R
GRAND JUNCTION CLEAR     63  27  25 E8        30.19R
RIFLE, CO      CLEAR     52  28  39 SE3       30.29R
MONTROSE, CO   CLOUDY    52  32  46 SE6       30.28R
CORTEZ, CO     CLOUDY    46  30  53 E6        30.25R
COLORADO CITY    N/A     63  27  25 SE3       30.13S
PAGE, AZ       PTCLDY    75  25  15 SW3       30.07R
GRAND CANYON   MOCLDY    59  32  36 SW6       30.25R
KINGMAN, AZ    MOCLDY    81  33  17 S5        29.95R
FLAGSTAFF, AZ  CLOUDY    69  34  27 S3        30.29R

$$

REGIONAL REPORTS    NEVADA/IDAHO/WYOMING

CITY           SKY/WX    TMP DP  RH WIND       PRES   REMARKS
LAS VEGAS, NV  MOCLDY    94  29  10 SE8       29.85R
ELY, NY        PTCLDY    44  22  41 S10       30.30R
ELKO, NV       PTCLDY    53  31  42 CALM      30.22S
POCATELLO, ID  CLEAR     51  41  68 S3        30.25R
BURLEY, ID     CLEAR     49  40  71 CALM      30.20R
FORT BRIDGER,    N/A     47  32  54 NW5       30.43R
EVANSTON, WY   CLOUDY    49  34  56 E7        30.40R
ROCK SPRINGS,  CLEAR     49  31  49 E13       30.39R
KEMMERER, WY     N/A     46  32  57 N10       30.42S

$$




USA.gov is the U.S. government's official web portal to all federal, state and local government web resources and services.